Tracking 30106 objects as of 23-Jan-2025
HD Live streaming from Space Station
objects crossing your sky now

STARLINK-4284

Track STARLINK-4284 now!
10-day predictions
STARLINK-4284 is classified as:


NORAD ID: 53023
Int'l Code: 2022-076AP
Perigee: 545.8 km
Apogee: 548.0 km
Inclination: 53.2 °
Period: 95.4 minutes
Semi major axis: 6917 km
RCS: Unknown
Launch date: July 7, 2022
Source: United States (US)
Launch site: AIR FORCE EASTERN TEST RANGE (AFETR)
Your satellite tracking list
Your tracking list is empty




NASA's NSSDC Master Catalog

Two Line Element Set (TLE):
1 53023U 22076AP  25023.56858940  .00000179  00000-0  29355-4 0  9992
2 53023  53.2188 125.2130 0001601 102.6075 257.5096 15.08844703141544
Source of the keplerian elements: AFSPC